Flag for Germany Weather past 2 weeks in Schwäbisch Hall, Baden-Württemberg, Germany

Now
63 °F

Sunny.


Feels Like: 63 °F
Forecast: 60 / 73 °F
Wind: 1 mph from East

Location: Oehringen

Current Time: Aug 2, 2014 at 8:36:48 AM

Latest Report: Aug 2, 2014 at 8:00 AM


Visibility: 8 mi

Pressure: 29.79 "Hg

Humidity: 79%

Dew point: 56 °F

Location of Schwäbisch HallLocation

Historic Weather in Schwäbisch Hall — Graph

°F

Schwäbisch Hall temperature yesterday

Maximum temperature yesterday: 78 °F (at 7:00 PM)
Minimum temperature yesterday: 59 °F (at 6:00 AM)
Average temperature yesterday: 69 °F

Past Weeks' High & Low Weather Summary

 TemperatureHumidityPressure
High93 °F (Jul 19, 5:00 PM)98% (Jul 22, 4:00 AM)30.12 "Hg (Jul 22, 4:00 AM)
Low59 °F (Jul 24, 6:00 AM)21% (Jul 19, 5:00 PM)29.72 "Hg (Jul 28, 7:00 PM)
Average71 °F69%29.89 "Hg
* Reported Jul 18 7:00 AM — Aug 2 7:00 AM, Schwäbisch Hall, Weather by CustomWeather, © 2014

Note: Actual official high and low records may vary slightly from our data, if they occured in-between our weather recording intervals... More about our weather records

Advertising

Schwäbisch Hall weather history for previous 24 hours

 ConditionsComfort  
Time TempWeatherWind HumidityBarometerVisibility
7:00 AM
Aug 2
59 °FSunny.2 mph87%29.79 "Hg6 mi
6:00 AM59 °FSunny.2 mph88%29.79 "Hg6 mi
5:00 AM60 °FClear.2 mph85%29.80 "Hg6 mi
4:00 AM60 °FPassing clouds.2 mph84%29.80 "Hg7 mi
3:00 AM60 °FClear.2 mph82%29.80 "Hg7 mi
2:00 AM61 °FPassing clouds.2 mph79%29.81 "Hg9 mi
1:00 AM62 °FClear.2 mph77%29.83 "Hg11 mi
12:00 AM62 °FClear.1 mph81%29.83 "Hg13 mi
11:00 PM
Aug 1
64 °FClear.1 mph80%29.83 "Hg12 mi
10:00 PM68 °FClear.1 mph70%29.83 "Hg18 mi
9:00 PM73 °FSunny.1 mph53%29.82 "Hg25 mi
8:00 PM78 °FSunny.1 mph44%29.80 "Hg28 mi
7:00 PM78 °FPassing clouds.2 mph42%29.80 "Hg28 mi
6:00 PM77 °FOvercast.2 mph46%29.81 "Hg31 mi
5:00 PM77 °FOvercast.2 mph46%29.82 "Hg25 mi
4:00 PM78 °FPartly sunny.2 mph44%29.83 "Hg25 mi
3:00 PM77 °FPartly sunny.3 mph45%29.84 "Hg31 mi
2:00 PM77 °FOvercast.2 mph45%29.85 "Hg37 mi
1:00 PM77 °FPassing clouds.3 mph46%29.85 "Hg28 mi
12:00 PM77 °FPassing clouds.5 mph44%29.87 "Hg15 mi
11:00 AM75 °FPassing clouds.3 mph51%29.88 "Hg25 mi
10:00 AM74 °FScattered clouds.3 mph62%29.88 "Hg19 mi
9:00 AM69 °FOvercast.1 mph74%29.90 "Hg7 mi
8:00 AM64 °FSunny.1 mph82%29.91 "Hg6 mi
Weather by CustomWeather, © 2014

See weather overviewHow to use our weather pages